[[{"header":{"parameterUnit":"m.s-1","parameterCategory":1,"la1":30.2991,"la2":30.254,"lo1":-89.0895,"lo2":-89.0444,"dy":0.0017,"dx":0.0017,"nx":28,"ny":28,"refTime":"2023-11-22T03:00:00:Z","depth":0,"parameterNumber":2,"parameterNumberName":"U-component_of_WINDS"},"data":[0,0,0,0,0,0,0,0,0,0,0,0,0,0,0,0,0,0,0,0,0,0,0,0,0,0,0,0,0,0,0,0,0,0,0,0,0,0,0,0,0,0,0,0,0,0,0,0,0,0,0,0,0,0,0,0,0,0,3.4154,3.4155,0,3.4189,3.419,3.419,3.4151,3.4149,3.4148,3.4146,3.418,3.4182,3.4184,0,0,0,0,0,0,0,0,0,0,0,0,0,3.4053,3.4055,3.4154,3.4155,3.4155,3.4189,3.419,3.419,3.4151,3.4149,3.4147,3.4146,3.4179,3.4182,3.4184,0,0,0,0,0,0,0,0,0,0,0,0,0,3.4093,3.4055,3.4154,3.414,3.4139,3.4189,3.419,3.419,3.4151,3.4149,3.4147,3.4145,3.4178,3.4181,3.4185,3.4251,0,0,3.4195,3.4197,0,0,0,0,0,0,0,0,3.4091,3.4097,3.4141,3.4141,3.414,3.4163,3.4166,3.421,3.4152,3.4146,3.4146,3.4144,3.4176,3.4179,3.4191,3.4252,3.4254,3.4196,3.4198,3.4199,3.42,0,0,0,0,0,0,0,3.4088,3.4095,3.4168,3.4142,3.4141,3.4131,3.4134,3.4174,3.4173,3.4147,3.4144,3.4149,3.4175,3.4188,3.4191,3.4254,3.4195,3.4199,3.4201,3.4202,3.4372,3.4375,0,0,0,0,0,0,3.4087,3.4093,3.4167,3.4169,3.4109,3.4135,3.4139,3.4158,3.4173,3.4173,3.4151,3.4147,3.4183,3.4187,3.4192,3.4271,3.4199,3.4202,3.4204,3.437,3.4373,3.4376,0,0,0,0,0,0,3.4085,3.4094,3.4166,3.413,3.4139,3.4139,3.4161,3.416,3.4172,3.4176,3.4175,3.4164,3.4181,3.4188,3.4237,3.4271,3.4204,3.4207,3.4367,3.4371,3.4374,3.4428,0,0,0,0,0,0,3.4082,3.4094,3.4119,3.4131,3.4141,3.421,3.4163,3.4162,3.4179,3.4174,3.4188,3.4188,3.418,3.4232,3.424,3.4275,3.421,3.4364,3.4369,3.4373,3.4423,3.4433,3.4441,0,0,0,0,0,3.4079,3.4132,3.412,3.4129,3.4172,3.4212,3.4217,3.4208,3.4182,3.4207,3.4209,3.4187,3.4267,3.4237,3.4246,3.4282,3.4362,3.4367,3.4373,3.4419,3.4431,3.4441,0,0,0,0,0,0,3.4121,3.4133,3.412,3.4179,3.4195,3.4205,3.4236,3.4221,3.4244,3.4238,3.4225,3.4229,3.4281,3.4287,3.4254,3.4347,3.431,3.4317,3.4342,3.4353,3.4362,3.4359,3.4212,0,0,0,0,0,3.4138,3.417,3.4178,3.4229,3.4238,3.4236,3.4253,3.4244,3.426,3.4266,3.4272,3.4288,3.4316,3.4335,3.4361,3.4424,3.4427,3.4453,3.4463,3.447,3.4477,3.4511,3.4523,3.4394,3.4394,3.4394,0,0,3.4172,3.4182,3.4203,3.4238,3.4249,3.4282,3.4242,3.4278,3.4302,3.4272,3.4319,3.4324,3.4341,3.4397,3.4422,3.4403,3.4513,3.4477,3.4483,3.4486,3.4518,3.453,3.4541,3.4398,3.4397,3.4396,0,0,3.425,3.4261,3.4305,3.4318,3.4337,3.4335,3.4346,3.436,3.4362,3.441,3.4388,3.4416,3.4465,3.4479,3.4492,3.4578,3.4559,3.4587,3.4634,3.4668,3.4678,3.4687,3.4718,3.4729,3.4593,3.4594,3.4594,0,3.4289,3.4339,3.4329,3.4368,3.4384,3.436,3.4404,3.4417,3.4443,3.4454,3.4433,3.4496,3.4505,3.4565,3.4586,3.4597,3.4609,3.4584,3.4678,3.4687,3.4695,3.4724,3.4735,3.4597,3.4596,3.4596,3.4596,0,3.4386,3.4421,3.4454,3.4481,3.4502,3.4543,3.454,3.4561,3.4552,3.4553,3.4602,3.4613,3.4642,3.4655,3.4646,3.4714,3.4702,3.468,3.4641,3.471,3.4738,3.4749,3.4601,3.46,3.4599,3.4598,0,0,3.449,3.4514,3.4526,3.4538,3.4558,3.4584,3.4625,3.4654,3.4673,3.4692,3.4726,3.4769,3.4749,3.4764,3.4756,3.4786,3.4854,3.476,3.476,3.4777,3.493,3.4947,3.496,3.4842,3.4844,3.4846,3.4929,0,3.4569,3.464,3.4634,3.4701,3.4733,3.4712,3.4747,3.4763,3.4766,3.4794,3.4796,3.4827,3.4799,3.4808,3.4836,3.484,3.4885,3.4834,3.4873,3.4874,3.4869,3.4974,3.4991,3.5068,3.4939,3.4941,3.4943,0,3.467,3.4694,3.4765,3.4781,3.4794,3.4826,3.4853,3.488,3.4898,3.4898,3.4916,3.4904,3.4945,3.4907,3.4963,3.4929,3.4945,3.495,3.4952,3.4955,3.4912,3.4979,3.5093,3.5104,3.4959,3.4958,3.4957,0,3.4738,3.4789,3.4838,3.4849,3.487,3.4893,3.4902,3.4918,3.4937,3.496,3.4972,3.5,3.5015,3.5037,3.5032,3.5005,3.509,3.5051,3.5091,3.5091,3.5109,3.5107,3.5226,3.512,3.512,3.512,3.512,0,3.4826,3.487,3.4869,3.4899,3.4949,3.4942,3.499,3.4997,3.5012,3.5043,3.5026,3.5055,3.5048,3.5077,3.5074,3.5121,3.5128,3.5129,3.5128,3.513,3.513,3.514,3.5134,3.5123,3.5122,3.5122,3.5121,0,3.491,3.4912,3.4964,3.498,3.4985,3.502,3.5033,3.5062,3.5064,3.5104,3.5113,3.5116,3.515,3.5148,3.5186,3.5184,3.5242,3.5235,3.5237,3.5235,3.5274,3.527,3.5402,3.5419,3.5303,3.5304,3.5305,0,3.4966,3.5,3.502,3.504,3.5051,3.5084,3.5103,3.5098,3.5119,3.5143,3.5169,3.5201,3.5227,3.5282,3.5287,3.5316,3.5309,3.5354,3.5313,3.5315,3.5309,3.5307,3.531,3.5361,3.5362,3.5363,3.5364,0,3.5065,3.5064,3.5093,3.5123,3.5147,3.5169,3.519,3.5207,3.5205,3.5229,3.5264,3.5284,3.5324,3.5356,3.5384,3.5394,3.5379,3.5377,3.5388,3.539,3.539,3.539,3.5257,3.5374,3.5373,3.5372,3.5372,3.5371,3.5136,3.5165,3.5184,3.5217,3.5233,3.5254,3.5282,3.5288,3.5318,3.535,3.5346,3.5385,3.5403,3.544,3.5452,3.5483,3.5467,3.5482,3.5486,3.5489,3.5494,3.5386,3.5488,3.5487,3.5487,3.5487,3.5487,0,3.5233,3.5245,3.5276,3.5306,3.5333,3.5318,3.5341,3.5364,3.5399,3.5418,3.5444,3.5485,3.5517,3.5526,3.5557,3.5579,3.5573,3.5587,3.5585,3.5588,3.5506,3.5494,3.5592,3.5592,3.5592,3.5592,3.5592,3.5592,3.5287,3.5336,3.5338,3.5395,3.5407,3.5446,3.546,3.5479,3.5494,3.5541,3.5568,3.5574,3.5589,3.5622,3.565,3.5652,3.5664,3.5681,3.568,3.5604,3.5593,3.5583,3.5571,3.5684,3.5684,3.5759,3.576,3.576]},{"header":{"parameterUnit":"m.s-1","parameterCategory":1,"la1":30.2991,"la2":30.254,"lo1":-89.0895,"lo2":-89.0444,"dy":0.0017,"dx":0.0017,"nx":28,"ny":28,"refTime":"2023-11-22T03:00:00:Z","depth":0,"parameterNumber":3,"parameterNumberName":"V-component_of_WINDS"},"data":[0,0,0,0,0,0,0,0,0,0,0,0,0,0,0,0,0,0,0,0,0,0,0,0,0,0,0,0,0,0,0,0,0,0,0,0,0,0,0,0,0,0,0,0,0,0,0,0,0,0,0,0,0,0,0,0,0,0,-6.3858,-6.386,0,-6.4009,-6.401,-6.4012,-6.3966,-6.3963,-6.396,-6.3957,-6.4109,-6.4116,-6.4123,0,0,0,0,0,0,0,0,0,0,0,0,0,-6.353,-6.3536,-6.3858,-6.386,-6.3862,-6.4008,-6.401,-6.4012,-6.3967,-6.3963,-6.3959,-6.3955,-6.4107,-6.4115,-6.4123,0,0,0,0,0,0,0,0,0,0,0,0,0,-6.3675,-6.3538,-6.3857,-6.3856,-6.3858,-6.4008,-6.401,-6.4013,-6.3967,-6.3963,-6.3958,-6.3953,-6.4104,-6.4114,-6.4124,-6.4284,0,0,-6.4156,-6.4161,0,0,0,0,0,0,0,0,-6.3667,-6.3687,-6.3855,-6.3857,-6.3859,-6.3964,-6.395,-6.4104,-6.3969,-6.3926,-6.3957,-6.3951,-6.4064,-6.4078,-6.4116,-6.4291,-6.4297,-6.4157,-6.4164,-6.4168,-6.4171,0,0,0,0,0,0,0,-6.3657,-6.3681,-6.3917,-6.3857,-6.386,-6.3848,-6.3864,-6.3979,-6.402,-6.3929,-6.3926,-6.3945,-6.4064,-6.4106,-6.4119,-6.43,-6.4157,-6.4166,-6.4173,-6.4177,-6.4614,-6.4619,0,0,0,0,0,0,-6.3646,-6.3673,-6.3912,-6.3922,-6.3749,-6.3858,-6.3875,-6.3935,-6.4018,-6.4026,-6.3949,-6.3942,-6.4091,-6.4107,-6.4125,-6.4318,-6.4168,-6.4178,-6.4184,-6.4609,-6.4615,-6.4621,0,0,0,0,0,0,-6.3639,-6.3668,-6.3906,-6.3797,-6.3826,-6.3869,-6.3936,-6.394,-6.3982,-6.4033,-6.404,-6.3984,-6.4088,-6.411,-6.4245,-6.4322,-6.4183,-6.4192,-6.4602,-6.4611,-6.4618,-6.4704,0,0,0,0,0,0,-6.363,-6.3666,-6.3727,-6.3798,-6.3832,-6.4025,-6.3941,-6.3946,-6.4,-6.3993,-6.4068,-6.4076,-6.4086,-6.423,-6.4255,-6.4334,-6.42,-6.4596,-6.4606,-6.4615,-6.4695,-6.4714,-6.4731,0,0,0,0,0,-6.3618,-6.3744,-6.373,-6.3759,-6.391,-6.4029,-6.4049,-6.4058,-6.4007,-6.4069,-6.4102,-6.4073,-6.431,-6.4244,-6.4273,-6.4355,-6.4591,-6.4603,-6.4615,-6.4686,-6.471,-6.473,0,0,0,0,0,0,-6.3679,-6.3753,-6.3738,-6.3891,-6.3955,-6.4021,-6.4099,-6.4083,-6.4161,-6.4151,-6.4158,-6.4176,-6.4314,-6.4348,-6.4274,-6.4515,-6.4443,-6.4461,-6.4487,-6.451,-6.4528,-6.4517,-6.4209,0,0,0,0,0,-6.3711,-6.3803,-6.3862,-6.3991,-6.4024,-6.4057,-6.4109,-6.4111,-6.4176,-6.4202,-6.4245,-6.4309,-6.4398,-6.4456,-6.454,-6.47,-6.4715,-6.4771,-6.4789,-6.4803,-6.4819,-6.4906,-6.4932,-6.466,-6.466,-6.466,0,0,-6.3776,-6.3828,-6.3885,-6.4005,-6.4054,-6.4149,-6.4079,-6.4182,-6.4252,-6.4218,-6.4348,-6.4382,-6.4454,-6.4602,-6.467,-6.4635,-6.4898,-6.4819,-6.483,-6.4838,-6.4921,-6.4947,-6.497,-6.4668,-6.4667,-6.4665,0,0,-6.3944,-6.3993,-6.4106,-6.4157,-6.4233,-6.4254,-6.4282,-6.4352,-6.4373,-6.4505,-6.4481,-6.4565,-6.4717,-6.477,-6.4816,-6.5006,-6.4983,-6.5033,-6.5128,-6.5213,-6.5234,-6.5253,-6.5321,-6.5346,-6.5049,-6.5049,-6.5049,0,-6.4016,-6.4158,-6.4166,-6.4272,-6.4325,-6.43,-6.4415,-6.4464,-6.4563,-6.4601,-6.4561,-6.4753,-6.4799,-6.496,-6.5006,-6.5045,-6.5076,-6.5025,-6.5231,-6.525,-6.5268,-6.5333,-6.5358,-6.5055,-6.5054,-6.5053,-6.5053,0,-6.4243,-6.4342,-6.4424,-6.4522,-6.4585,-6.4694,-6.4719,-6.4782,-6.4779,-6.4804,-6.4939,-6.4994,-6.509,-6.5128,-6.5126,-6.5289,-6.5265,-6.5228,-6.5156,-6.5299,-6.536,-6.5385,-6.5063,-6.5061,-6.5059,-6.5058,0,0,-6.4452,-6.4554,-6.4584,-6.4629,-6.4712,-6.4788,-6.4897,-6.4992,-6.5045,-6.5115,-6.5206,-6.5337,-6.5304,-6.5357,-6.536,-6.5435,-6.5583,-6.5389,-6.539,-6.5423,-6.5767,-6.5794,-6.5823,-6.5568,-6.5573,-6.5577,-6.5761,0,-6.4627,-6.4819,-6.4831,-6.5004,-6.5096,-6.5075,-6.5169,-6.523,-6.5257,-6.5339,-6.5368,-6.5461,-6.541,-6.5442,-6.5515,-6.5549,-6.5652,-6.5536,-6.5653,-6.5657,-6.5636,-6.5855,-6.5884,-6.6055,-6.5785,-6.5789,-6.5792,0,-6.4856,-6.4934,-6.5118,-6.5189,-6.5228,-6.5313,-6.5401,-6.548,-6.5548,-6.5563,-6.5623,-6.5617,-6.5728,-6.5653,-6.5806,-6.5728,-6.5776,-6.58,-6.5807,-6.5818,-6.5733,-6.5872,-6.6109,-6.6135,-6.5829,-6.5826,-6.5824,0,-6.4991,-6.5142,-6.5272,-6.531,-6.5396,-6.5457,-6.5495,-6.5559,-6.5616,-6.5693,-6.573,-6.5819,-6.5867,-6.5936,-6.5953,-6.5897,-6.6108,-6.6033,-6.6123,-6.6122,-6.6167,-6.6164,-6.6416,-6.6199,-6.6199,-6.6198,-6.6198,0,-6.5185,-6.5298,-6.5333,-6.5413,-6.554,-6.5552,-6.5677,-6.5711,-6.5769,-6.5855,-6.5841,-6.5922,-6.594,-6.6025,-6.6039,-6.6165,-6.6186,-6.6201,-6.6204,-6.6203,-6.6201,-6.6234,-6.6223,-6.6205,-6.6204,-6.6202,-6.6201,0,-6.5356,-6.5385,-6.5525,-6.5595,-6.5615,-6.5706,-6.5766,-6.5842,-6.5868,-6.5977,-6.6003,-6.6044,-6.6143,-6.6167,-6.6285,-6.6294,-6.6443,-6.6434,-6.642,-6.642,-6.6508,-6.65,-6.679,-6.6829,-6.6587,-6.6589,-6.6591,0,-6.5478,-6.5565,-6.5645,-6.5703,-6.5744,-6.5836,-6.5894,-6.591,-6.5971,-6.6057,-6.6124,-6.6221,-6.63,-6.6459,-6.6499,-6.6589,-6.6582,-6.6678,-6.6595,-6.6592,-6.6584,-6.6579,-6.6587,-6.6693,-6.6696,-6.6698,-6.67,0,-6.5692,-6.5702,-6.5786,-6.5877,-6.5947,-6.6019,-6.6087,-6.6135,-6.616,-6.623,-6.6331,-6.6393,-6.6514,-6.6611,-6.6702,-6.6741,-6.6725,-6.6726,-6.6751,-6.6751,-6.6739,-6.6747,-6.6463,-6.6718,-6.6717,-6.6715,-6.6714,-6.6713,-6.5842,-6.5919,-6.5988,-6.6083,-6.6137,-6.6202,-6.6277,-6.6314,-6.6399,-6.6499,-6.6503,-6.6614,-6.6682,-6.6803,-6.6847,-6.6934,-6.6905,-6.6942,-6.6951,-6.696,-6.6968,-6.6726,-6.6951,-6.695,-6.695,-6.6949,-6.6949,0,-6.6055,-6.6099,-6.6187,-6.6284,-6.6359,-6.6339,-6.6414,-6.6478,-6.6576,-6.6641,-6.6719,-6.6837,-6.6931,-6.6979,-6.7073,-6.7133,-6.7128,-6.7157,-6.7153,-6.7162,-6.6988,-6.6957,-6.716,-6.7159,-6.7159,-6.7159,-6.7159,-6.7159,-6.6175,-6.6304,-6.6323,-6.6478,-6.6521,-6.663,-6.6675,-6.6735,-6.6787,-6.6919,-6.6998,-6.7029,-6.7087,-6.7185,-6.7271,-6.7283,-6.7318,-6.7351,-6.7359,-6.7196,-6.7174,-6.7154,-6.7124,-6.7358,-6.7359,-6.7525,-6.7527,-6.7528]}]]